Previsão horária em Cauterets

Hoje, 25 Julho, Domingo

Tempo Temperatura Precipitação Vento Pressão Humidade
00:00 +7°C° 0 mm 1 m/s 582 mmHg 85%
01:00 +6°C° 0 mm 1 m/s 582 mmHg 84%
02:00 +6°C° 0 mm 1 m/s 582 mmHg 83%
03:00 +5°C° 0 mm 1 m/s 581 mmHg 83%
04:00 +6°C° 0 mm 1 m/s 581 mmHg 80%
05:00 +7°C° 0 mm 1 m/s 582 mmHg 77%
06:00 +6°C° 0 mm 0 m/s 582 mmHg 75%
07:00 +9°C° 0 mm 1 m/s 583 mmHg 68%
08:00 +10°C° 0 mm 1 m/s 583 mmHg 62%
09:00 +12°C° 0 mm 2 m/s 584 mmHg 55%
10:00 +13°C° 0 mm 2 m/s 584 mmHg 55%
11:00 +13°C° 0 mm 2 m/s 584 mmHg 55%
12:00 +14°C° 0 mm 2 m/s 585 mmHg 55%
13:00 +13°C° 0.1 mm 2 m/s 584 mmHg 58%
14:00 +13°C° 0.1 mm 2 m/s 584 mmHg 62%
15:00 +12°C° 0.1 mm 2 m/s 584 mmHg 66%
16:00 +10°C° 0.3 mm 2 m/s 584 mmHg 73%
17:00 +9°C° 0.3 mm 2 m/s 583 mmHg 79%
18:00 +8°C° 0.3 mm 2 m/s 583 mmHg 86%
19:00 +8°C° 0.4 mm 1 m/s 583 mmHg 88%
20:00 +8°C° 0.4 mm 1 m/s 583 mmHg 90%
21:00 +7°C° 0.4 mm 1 m/s 583 mmHg 92%
22:00 +7°C° 0.2 mm 1 m/s 583 mmHg 92%
23:00 +7°C° 0.2 mm 1 m/s 583 mmHg 92%

Amanhã, 26 Julho, Segunda-feira

Tempo Temperatura Precipitação Vento Pressão Humidade
00:00 +6°C° 0.2 mm 0 m/s 583 mmHg 92%
01:00 +6°C° 0.1 mm 1 m/s 582 mmHg 93%
02:00 +6°C° 0.1 mm 1 m/s 582 mmHg 94%
03:00 +6°C° 0.1 mm 1 m/s 582 mmHg 95%
04:00 +6°C° 0.2 mm 1 m/s 582 mmHg 94%
05:00 +7°C° 0.2 mm 1 m/s 583 mmHg 93%
06:00 +6°C° 0.2 mm 0 m/s 583 mmHg 92%
07:00 +8°C° 0.1 mm 1 m/s 584 mmHg 87%
08:00 +9°C° 0.1 mm 1 m/s 584 mmHg 82%
09:00 +10°C° 0.1 mm 1 m/s 585 mmHg 77%
10:00 +10°C° 0.4 mm 1 m/s 585 mmHg 76%
11:00 +11°C° 0.4 mm 1 m/s 585 mmHg 74%
12:00 +11°C° 0.4 mm 1 m/s 586 mmHg 72%
13:00 +11°C° 0.4 mm 1 m/s 586 mmHg 73%
14:00 +11°C° 0.4 mm 1 m/s 586 mmHg 74%
15:00 +11°C° 0.4 mm 1 m/s 585 mmHg 76%
16:00 +11°C° 0.1 mm 1 m/s 585 mmHg 76%
17:00 +11°C° 0.1 mm 1 m/s 585 mmHg 76%
18:00 +10°C° 0.1 mm 0 m/s 585 mmHg 77%
19:00 +9°C° 0 mm 0 m/s 585 mmHg 81%
20:00 +7°C° 0 mm 0 m/s 585 mmHg 84%
21:00 +7°C° 0 mm 1 m/s 585 mmHg 88%
22:00 +7°C° 0 mm 1 m/s 584 mmHg 88%
23:00 +7°C° 0 mm 1 m/s 584 mmHg 88%

Depois de amanhã, 27 Julho, Terça-feira

Tempo Temperatura Precipitação Vento Pressão Humidade
00:00 +5°C° 0 mm 2 m/s 584 mmHg 88%
01:00 +5°C° 0 mm 2 m/s 584 mmHg 89%
02:00 +5°C° 0 mm 2 m/s 584 mmHg 89%
03:00 +5°C° 0 mm 2 m/s 583 mmHg 89%
04:00 +6°C° 0 mm 2 m/s 584 mmHg 88%
05:00 +6°C° 0 mm 2 m/s 584 mmHg 86%
06:00 +7°C° 0 mm 2 m/s 584 mmHg 84%
07:00 +9°C° 0 mm 2 m/s 585 mmHg 75%
08:00 +12°C° 0 mm 2 m/s 586 mmHg 66%
09:00 +14°C° 0 mm 2 m/s 587 mmHg 58%
10:00 +15°C° 0.1 mm 2 m/s 587 mmHg 56%
11:00 +15°C° 0.1 mm 2 m/s 587 mmHg 55%
12:00 +16°C° 0.1 mm 2 m/s 587 mmHg 54%
13:00 +16°C° 0.3 mm 2 m/s 587 mmHg 57%
14:00 +15°C° 0.3 mm 2 m/s 587 mmHg 61%
15:00 +15°C° 0.3 mm 2 m/s 586 mmHg 65%
16:00 +13°C° 0.4 mm 2 m/s 586 mmHg 72%
17:00 +12°C° 0.4 mm 1 m/s 585 mmHg 80%
18:00 +10°C° 0.4 mm 1 m/s 585 mmHg 88%
19:00 +10°C° 0.1 mm 1 m/s 585 mmHg 89%
20:00 +9°C° 0.1 mm 1 m/s 585 mmHg 90%
21:00 +9°C° 0.1 mm 1 m/s 585 mmHg 91%
22:00 +8°C° 0 mm 1 m/s 584 mmHg 91%
23:00 +8°C° 0 mm 1 m/s 584 mmHg 91%

28 Julho, Quarta-feira

Tempo Temperatura Precipitação Vento Pressão Humidade
00:00 +8°C° 0 mm 1 m/s 584 mmHg 91%
01:00 +8°C° 0 mm 1 m/s 584 mmHg 90%
02:00 +8°C° 0 mm 1 m/s 584 mmHg 89%
03:00 +8°C° 0 mm 1 m/s 584 mmHg 89%
04:00 +8°C° 0 mm 1 m/s 584 mmHg 88%
05:00 +8°C° 0 mm 1 m/s 584 mmHg 87%
06:00 +9°C° 0 mm 1 m/s 584 mmHg 86%
07:00 +10°C° 0 mm 1 m/s 585 mmHg 80%
08:00 +12°C° 0 mm 2 m/s 585 mmHg 75%
09:00 +13°C° 0 mm 2 m/s 586 mmHg 69%
10:00 +14°C° 0 mm 2 m/s 587 mmHg 66%
11:00 +14°C° 0 mm 3 m/s 587 mmHg 63%
12:00 +16°C° 0 mm 3 m/s 587 mmHg 60%
13:00 +16°C° 0 mm 3 m/s 588 mmHg 59%
14:00 +17°C° 0 mm 3 m/s 588 mmHg 58%
15:00 +17°C° 0 mm 2 m/s 588 mmHg 56%
16:00 +16°C° 0 mm 2 m/s 587 mmHg 60%
17:00 +16°C° 0 mm 2 m/s 587 mmHg 65%
18:00 +15°C° 0 mm 1 m/s 587 mmHg 69%
19:00 +14°C° 0 mm 1 m/s 586 mmHg 75%
20:00 +12°C° 0 mm 1 m/s 586 mmHg 81%
21:00 +10°C° 0 mm 1 m/s 585 mmHg 87%
22:00 +10°C° 0 mm 1 m/s 585 mmHg 87%
23:00 +9°C° 0 mm 1 m/s 585 mmHg 88%

29 Julho, Quinta-feira

Tempo Temperatura Precipitação Vento Pressão Humidade
00:00 +9°C° 0 mm 1 m/s 585 mmHg 89%
01:00 +9°C° 0 mm 1 m/s 584 mmHg 88%
02:00 +9°C° 0 mm 1 m/s 584 mmHg 87%
03:00 +9°C° 0 mm 1 m/s 584 mmHg 87%
04:00 +9°C° 0 mm 1 m/s 584 mmHg 85%
05:00 +9°C° 0 mm 1 m/s 584 mmHg 83%
06:00 +9°C° 0 mm 2 m/s 584 mmHg 81%
07:00 +12°C° 0 mm 2 m/s 585 mmHg 73%
08:00 +14°C° 0 mm 2 m/s 586 mmHg 66%
09:00 +16°C° 0 mm 2 m/s 587 mmHg 58%
10:00 +17°C° 0 mm 3 m/s 587 mmHg 55%
11:00 +18°C° 0 mm 3 m/s 588 mmHg 51%
12:00 +19°C° 0 mm 3 m/s 588 mmHg 47%
13:00 +19°C° 0 mm 3 m/s 588 mmHg 46%
14:00 +20°C° 0 mm 3 m/s 588 mmHg 44%
15:00 +20°C° 0 mm 3 m/s 588 mmHg 42%
16:00 +19°C° 0 mm 3 m/s 587 mmHg 50%
17:00 +18°C° 0 mm 2 m/s 587 mmHg 57%
18:00 +16°C° 0 mm 2 m/s 586 mmHg 65%
19:00 +14°C° 0.2 mm 2 m/s 586 mmHg 73%
20:00 +12°C° 0.2 mm 1 m/s 585 mmHg 81%
21:00 +10°C° 0.2 mm 1 m/s 584 mmHg 89%
22:00 +10°C° 0.1 mm 1 m/s 584 mmHg 89%
23:00 +9°C° 0.1 mm 1 m/s 584 mmHg 89%

30 Julho, Sexta-feira

Tempo Temperatura Precipitação Vento Pressão Humidade
00:00 +9°C° 0.1 mm 1 m/s 584 mmHg 89%
01:00 +9°C° 0 mm 1 m/s 584 mmHg 89%
02:00 +8°C° 0 mm 1 m/s 584 mmHg 90%
03:00 +8°C° 0 mm 1 m/s 583 mmHg 90%
04:00 +8°C° 0 mm 1 m/s 584 mmHg 89%
05:00 +8°C° 0 mm 1 m/s 584 mmHg 89%
06:00 +9°C° 0 mm 1 m/s 584 mmHg 88%
07:00 +10°C° 0 mm 1 m/s 585 mmHg 84%
08:00 +11°C° 0 mm 1 m/s 585 mmHg 79%
09:00 +12°C° 0 mm 2 m/s 586 mmHg 74%
10:00 +12°C° 0 mm 2 m/s 586 mmHg 71%
11:00 +13°C° 0 mm 2 m/s 586 mmHg 67%
12:00 +14°C° 0 mm 2 m/s 587 mmHg 64%
13:00 +13°C° 0 mm 2 m/s 587 mmHg 64%
14:00 +13°C° 0 mm 2 m/s 587 mmHg 65%
15:00 +13°C° 0 mm 2 m/s 587 mmHg 65%
16:00 +12°C° 0 mm 2 m/s 586 mmHg 70%
17:00 +10°C° 0 mm 2 m/s 586 mmHg 75%
18:00 +11°C° 0 mm 1 m/s 586 mmHg 79%
19:00 +9°C° 0 mm 1 m/s 586 mmHg 83%
20:00 +8°C° 0 mm 1 m/s 585 mmHg 87%
21:00 +7°C° 0 mm 1 m/s 585 mmHg 91%
22:00 +7°C° 0 mm 1 m/s 585 mmHg 90%
23:00 +7°C° 0 mm 1 m/s 585 mmHg 88%
Mostrar mais

Necessitamos do seu Consentimento

A Meteoprog e os seus Fornecedores de Serviços podem armazenar e aceder a dados pessoais como cookies, identificadores do dispositivo ou outras tecnologias semelhantes existentes no seu dispositivo e processar estes dados para personalizar conteúdos e anúncios, assim como funcionalidades nas redes sociais e análise de tráfego.

  • Armazenar e/ou aceder a informações no seu dispositivo

    Os cookies, identificadores do dispositivo ou outras informações podem ser armazenados ou acedidos no seu dispositivo, para os fins acima indicados.

  • Anúncios e conteúdos personalizados, medição de anúncios e conteúdos, dados sobre o público-alvo e desenvolvimento de produtos

    Os anúncios e os conteúdos podem ser personalizados com base num perfil. Podem ser adicionados dados adicionais para uma maior personalização dos anúncios e dos conteúdos. A eficácia dos anúncios e dos conteúdos pode ser medida. Podem ser obtidas informações sobre o público que visualizou os anúncios e os conteúdos. Estes dados podem ser usados para desenvolver ou melhorar sistemas, softwares ou a experiência do utilizador.

Ao clicar em "Eu concordo”, permitirá o uso de cookies, identificadores do dispositivo e web beacons mencionados ou outras tecnologias semelhantes. As configurações do navegador do seu dispositivo podem ser alteradas.

Para certos fins, podem ser invocados interesses legítimos ao invés de consentimento. Pode ler mais informação sobre este assunto na nossa Política de Privacidade e Cookies.